Regional Weather Roundup
Issued by NWS Northern Indiana

Home | Current Version | Previous Version | Text Only | Print | Product List | Glossary Off
Versions: 1 2 3 4 5 6 7 8 9 10 11 12 13 14 15 16 17 18 19 20 21 22 23 24 25 26 27 28 29 30 31 32 33 34 35 36 37 38 39 40 41 42 43 44 45 46 47 48 49 50

000
ASUS43 KIWX 180510
RWRIWX

KIWX WEATHER ROUNDUP
NATIONAL WEATHER SERVICE NORTHERN INDIANA
1200 AM EST WED JAN 18 2017

NOTE: "FAIR" INDICATES FEW OR NO CLOUDS BELOW 12,000 FEET WITH NO
SIGNIFICANT WEATHER AND/OR OBSTRUCTIONS TO VISIBILITY.

* THESE STATIONS ARE NOT UNDER NWS QUALITY CONTROL. THEY ALSO MAY NOT
  REPORT WEATHER SUCH AS PRECIPITATION OR FOG.

INZ001>027-180600-
NORTHERN INDIANA

CITY           SKY/WX    TMP DP  RH WIND       PRES   REMARKS
GARY*          CLOUDY    37  35  93 W8        30.01F FOG
VALPARAISO     CLOUDY    36  34  92 W13       30.01S
LAPORTE*       CLOUDY    34  33  96 W10       30.00S FOG     WCI  26
KNOX*          CLOUDY    34  27  75 W12       30.00F WCI  25
SOUTH BEND     CLOUDY    34  34 100 W9        29.99R WCI  27
GOSHEN         CLOUDY    35  32  88 W13       29.98R FOG     WCI  26
ROCHESTER*     CLOUDY    36  36 100 W8        30.02S FOG
WARSAW*        CLOUDY    34  30  86 W13       29.99S HAZE    WCI  25
FORT WAYNE     CLOUDY    37  34  89 W18       30.00R
PERU/GRISSOM   CLOUDY    36  36 100 W15       30.01S
MARION*        CLOUDY    36  36 100 W20       30.03S FOG

$$
INZ028>050-180600-
CENTRAL INDIANA

CITY           SKY/WX    TMP DP  RH WIND       PRES   REMARKS
LAFAYETTE      CLOUDY    35  34  96 W9        30.06S WCI  28
KOKOMO*        MIX PCPN  36  34  92 W17       30.04R
MUNCIE*        CLOUDY    39  36  89 W12       30.03R
INDIANAPOLIS   CLOUDY    38  35  89 W18       30.07R

$$
MIZ043>046-050>051-056>058-064>065-071>073-077>080-180600-
SOUTHWEST LOWER MICHIGAN

CITY           SKY/WX    TMP DP  RH WIND       PRES   REMARKS
BATTLE CREEK   CLOUDY    37  36  96 W12       29.94R
BENTON HARBOR  CLOUDY    36  34  92 W15       29.97S
COLDWATER*     CLOUDY    36  36 100 W13G18    29.95R
HILLSDALE*     LGT RAIN  34  34 100 W7        29.92R WCI  28
HOLLAND        MIX PCPN  36  35  96 W8        29.94S
GRAND RAPIDS   DRIZZLE   36  34  92 W10       29.92R FOG
KALAMAZOO      CLOUDY    37  33  85 W9        29.95R
STURGIS*       CLOUDY    35  34  96 W12       29.96R WCI  27
THREE RIVERS*  CLOUDY    35  34  96 W8        29.96R WCI  29

$$
OHZ001>008-015>018-024>025-180600-
NORTHWEST OHIO

CITY           SKY/WX    TMP DP  RH WIND       PRES   REMARKS
DEFIANCE       CLOUDY    39  35  86 W9G18     29.97S
FINDLAY        CLOUDY    42  37  82 W17       29.95S
TOLEDO EXPRESS CLOUDY    39  39 100 W15       29.94R
TOLEDO METCALF CLOUDY    41  39  93 W17G23    29.95R
LIMA           CLOUDY    41  39  93 W14       29.98R

$$
AND FOR LAKE MICHIGAN COASTAL AND OPEN LAKE BUOY OBSERVATIONS

STATION/POSITION TEMP    WIND        PRES    VSBY  WAVE
                 AIR SEA DIR/SP/G                  HT/PER
                 (F)     (DEG/KT/KT) (MB)    (MI)  (FT/S)
CALUMET HARBOR    35     240/  6/ 12 1015.3S
BURNS HARBOR      35     260/ 16/ 18 1016.3F

$$
&&



USA.gov is the U.S. government's official web portal to all federal, state and local government web resources and services.